Notices

What's New in latest Release from April 7th, 2021:

- Updated Glossary, including Speed of Maximum Gust, and Total Hourly Precipitation

- Updated national and regional climate services offices contacts and prices information

- Addition of station inventory lists for 1981-2010, 1971-2000, and 1961-1990 Normals.

If you haven't already, please take our survey and provide feedback about our website: https://eccc.sondage-survey.ca/f/LanguageSelection.aspx?s=442ca660-fcf1-47c0-95a9-59707d6fd709

Hourly Data Report for November 29, 2020

VICTORIA UNIVERSITY CS
BRITISH COLUMBIA
Current Station Operator: ECCC - MSC

48°27'25.200" N
123°18'16.600" W
60.10 m
1018598
71783
WYJ

Download Data

Hourly Data (November 2020)
Hourly Data Report for November 29, 2020
TIME
LST
Temp Definition
°C
Dew Point Definition
°C
Rel Hum Definition
%
Precip. Amount Definition
mm

Wind Dir Definition
10's deg

Wind Spd Definition
km/h
Visibility Definition
km
Stn Press Definition
kPa
Hmdx Definition


Wind Chill Definition


Weather Definition


00:00 4.8 4.2 96 0.0 33 8   102.05     LegendNANA
01:00 5.4 4.5 94 0.0 35 7   101.98     LegendNANA
02:00 5.6 4.8 95 0.0 36 6   101.95     LegendNANA
03:00 5.6 5.0 96 0.0 36 9   101.91     LegendNANA
04:00 5.8 5.3 97 0.0 1 6   101.85     LegendNANA
05:00 5.9 4.5 91 0.0 5 3   101.85     LegendNANA
06:00 5.5 4.9 96 0.0 33 5   101.80     LegendNANA
07:00 5.6 5.0 96 0.0 36 5   101.80     LegendNANA
08:00 5.6 4.7 94 0.0 2 3   101.78     LegendNANA
09:00 5.2 4.4 95 0.0 36 4   101.71     LegendNANA
10:00 7.0 4.3 83 0.0 2 5   101.67     LegendNANA
11:00 6.9 3.9 81 0.0 8 4   101.59     LegendNANA
12:00 7.0 3.5 78 0.0 6 3   101.48     LegendNANA
13:00 6.8 3.2 78 0.0 1 7   101.40     LegendNANA
14:00 7.4 3.2 74 0.0 1 6   101.27     LegendNANA
15:00 6.9 4.2 83 0.0 35 10   101.17     LegendNANA
16:00 6.9 3.7 80 0.0 36 9   101.08     LegendNANA
17:00 6.5 4.3 85 0.0 35 8   101.01     LegendNANA
18:00 6.6 3.9 83 0.0 34 7   100.91     LegendNANA
19:00 6.9 4.0 82 0.0 34 8   100.91     LegendNANA
20:00 6.4 3.9 84 0.0 35 8   100.77     LegendNANA
21:00 6.5 4.7 88 0.0 1 3   100.62     LegendNANA
22:00 5.7 5.1 96 0.0 36 2   100.54     LegendNANA
23:00 7.0 4.9 86 0.0 8 4   100.30     LegendNANA

Notes on Data Quality.

Legend

  • E = Estimated
  • M = Missing
  • NA = Not Available*
  • [empty] = Indicates an unobserved value
Date modified: